Location: Arboucave
(43.6130°N, 0.4343°W)
Time: 06:24:33
(UTC+00:00)

USA 215 - Pass Details

Date: 17 November 2025
Orbit: 1101 x 1106 km, 123.0° (Epoch: 02 December)

Event Time Altitude Azimuth Distance (km) Brightness Sun altitude
Rises 18:28:32 0° 149° (SSE) 3,907 5.9 -20.5°
Reaches altitude 10° 18:31:07 10° 154° (SSE) 2,953 5.3 -21.0°
Maximum altitude 18:37:23 48° 228° (SW) 1,403 4.1 -22.1°
Drops below altitude 10° 18:43:41 10° 302° (WNW) 2,970 6.2 -23.2°
Sets 18:46:17 0° 308° (NW) 3,931 6.9 -23.7°
